Location: Navalespino
(40.5894°N, 4.2660°W)
Time: 13:07:23
(UTC+00:00)

USA 229 - Visible Passes

Search period start: 12 July 2024 00:00
Search period end: 22 July 2024 00:00
Orbit: 890 x 1322 km, 63.4° (Epoch: 18 May)

Date Brightness Start Highest point End Pass type
(mag) Time Alt. Az. Time Alt. Az. Time Alt. Az.
12 Jul 3.8 00:40:18 47° ESE 00:40:18 47° ESE 00:46:26 10° NE visible
12 Jul 4.7 02:27:42 20° W 02:31:18 34° NW 02:37:24 10° NNE visible
12 Jul 5.9 04:21:55 10° NW 04:24:36 12° NNW 04:27:22 10° N visible
12 Jul 4.7 23:56:33 27° E 23:56:33 27° E 00:00:58 10° NE visible
13 Jul 4.0 01:43:57 36° W 01:46:05 51° NW 01:52:37 10° NNE visible
13 Jul 5.7 03:35:04 10° WNW 03:38:48 15° NNW 03:42:44 10° NNE visible
13 Jul 5.3 23:12:45 15° E 23:12:45 15° E 23:14:50 10° ENE visible
14 Jul 3.4 01:00:10 66° WSW 01:01:04 80° NW 01:07:45 10° NNE visible
14 Jul 5.5 02:48:32 10° WNW 02:53:09 20° NNW 02:58:05 10° NNE visible
15 Jul 3.4 00:16:20 64° ESE 00:16:20 64° ESE 00:22:42 10° NE visible
15 Jul 5.1 02:03:44 16° W 02:07:40 28° NW 02:13:24 10° NNE visible
15 Jul 6.1 03:59:17 10° NNW 04:01:17 11° N 04:03:20 10° N visible
15 Jul 4.2 23:32:27 36° E 23:32:27 36° E 23:37:28 10° NE visible
16 Jul 4.5 01:19:50 29° W 01:22:21 40° NW 01:28:40 10° NNE visible
16 Jul 5.9 03:12:17 10° NW 03:15:25 13° NNW 03:18:41 10° N visible
16 Jul 4.9 22:48:31 21° E 22:48:31 21° E 22:51:47 10° ENE visible
17 Jul 3.8 00:35:54 51° W 00:37:14 62° NW 00:43:51 10° NNE visible
17 Jul 5.8 02:25:34 10° WNW 02:29:40 17° NNW 02:34:02 10° NNE visible
17 Jul 6.5 04:23:03 10° N 04:24:00 10° N 04:24:56 10° N visible
17 Jul 5.5 22:04:31 11° E 22:04:31 11° E 22:04:57 10° E visible
17 Jul 3.3 23:51:54 79° S 23:52:17 85° ESE 23:58:55 10° NE visible
18 Jul 5.4 01:39:17 10° W 01:44:05 23° NW 01:49:23 10° NNE visible
18 Jul 6.3 03:36:40 10° NNW 03:38:00 11° N 03:39:23 10° N visible
18 Jul 3.6 23:07:50 51° ESE 23:07:50 51° ESE 23:13:48 10° NE visible
19 Jul 4.9 00:55:12 19° W 00:58:41 32° NW 01:04:40 10° NNE visible
19 Jul 6.1 02:49:35 10° NW 02:52:05 12° NNW 02:54:38 10° N visible
19 Jul 4.4 22:23:40 30° E 22:23:40 30° E 22:28:25 10° NE visible
20 Jul 4.2 00:11:02 33° W 00:13:27 48° NW 00:19:54 10° NNE visible
20 Jul 6.0 02:02:42 10° NW 02:06:16 15° NNW 02:10:00 10° N visible
20 Jul 6.5 03:59:15 10° N 04:00:44 11° N 04:02:14 10° NNE visible
20 Jul 5.0 21:39:23 17° E 21:39:23 17° E 21:42:27 10° ENE visible
20 Jul 3.5 23:26:45 51° WSW 23:28:24 74° NW 23:35:03 10° NNE visible
21 Jul 5.8 01:16:07 10° WNW 01:20:35 19° NNW 01:25:21 10° NNE visible
21 Jul 6.6 03:13:52 10° N 03:14:45 10° N 03:15:39 10° N visible
21 Jul 3.3 22:42:18 56° S 22:43:31 70° ESE 22:50:03 10° NE visible
